Location: Abraham Lincoln Continuation High School
(33.9711°N, 117.3662°W)
Time: 10:48:07
(UTC+00:00)

Cosmos 1680 Rocket - Pass Details

Date: 26 January 2021
Orbit: 760 x 780 km, 74.1° (Epoch: 25 February)

Event Time Altitude Azimuth Distance (km) Brightness Sun altitude
Rises 03:04:37 0° 331° (NNW) 3,232 7.0 -23.0°
Reaches altitude 10° 03:07:13 10° 321° (NW) 2,300 6.3 -23.5°
Maximum altitude 03:11:45 31° 260° (W) 1,315 5.3 -24.5°
Drops below altitude 10° 03:16:16 10° 200° (SSW) 2,283 6.2 -25.4°
Sets 03:18:50 0° 189° (S) 3,204 6.9 -25.9°
